Lapse_Rate
-0.0 0.2 0.9 1.4 0.3 0.7 0.5 -0.0 0.6 0.8 1.0 0.6 1.4 1.9 2.2 2.1 2.2 3.0 2.8 3.3 3.5 3.0
0.8 0.5 1.6 1.1 0.6 0.5 1.5 1.5 1.6 1.5 1.6 1.8 2.3 2.3 2.7 2.7 3.0 3.4 3.5 3.7 3.1 3.0
1.3 1.9 1.4 2.4 1.5 2.7 2.8 2.6 2.1 2.1 2.5 2.5 2.8 3.1 3.4 3.4 4.0 4.1 3.9 4.2 4.4 4.2
1.7 2.5 3.4 4.3 4.2 4.0 3.4 3.2 3.4 3.4 3.6 3.8 4.3 4.4 4.6 4.7 4.9 4.6 4.5 4.4 4.2 4.1
3.0 4.1 4.4 4.9 5.3 5.6 5.0 4.9 4.7 4.7 4.8 4.8 4.7 4.8 4.8 4.9 4.9 4.8 4.5 4.5 4.2 4.4
3.5 3.9 4.1 4.1 4.6 4.5 4.9 4.8 5.0 5.2 5.2 5.2 5.1 5.2 5.1 4.9 4.9 4.7 4.6 4.6 4.5 4.6
4.6 4.8 5.0 5.1 4.4 3.7 3.9 4.7 5.4 5.6 5.3 5.3 5.4 5.3 5.3 5.3 5.1 5.0 4.7 4.8 5.2 5.6
4.8 4.2 4.0 3.8 3.7 4.2 4.5 4.1 5.2 5.2 5.6 5.7 5.4 5.3 5.0 5.1 5.1 5.3 5.5 5.4 5.4 5.3
5.0 4.6 4.0 3.8 3.8 4.0 4.2 4.2 4.1 4.6 4.6 4.7 5.0 5.6 5.7 5.4 4.8 5.0 4.9 5.3 5.5 5.3
5.3 5.1 4.8 4.5 4.2 4.0 4.2 4.4 4.2 4.0 4.2 4.7 5.7 6.4 6.4 6.2 5.5 5.6 5.7 6.1 6.2 6.2
5.6 5.4 5.4 5.1 4.8 4.5 4.3 4.2 4.3 4.0 4.3 5.0 6.4 7.4 7.2 7.0 6.4 6.6 6.7 6.6 6.5 6.4
5.9 5.6 5.7 5.6 5.4 5.3 4.9 4.8 4.5 4.6 4.5 5.0 5.6 8.2 8.0 7.0 6.5 6.6 6.6 6.5 6.4 6.5
5.7 5.5 5.4 5.7 5.5 5.8 5.7 5.4 5.3 5.0 4.9 5.9 5.6 7.2 7.3 7.0 7.1 6.1 6.6 6.7 6.7 6.7
5.4 5.4 5.9 5.7 5.8 5.6 5.7 5.7 5.4 5.2 5.1 5.1 5.5 6.1 6.8 6.9 6.9 7.0 7.0 7.0 7.2 7.4
Wind_Speed
13 9 7 8 7 6 5 6 10 11 11 13 11 11 11 9 8 8 4 5 4 3
10 11 9 10 10 7 9 11 12 12 13 12 12 12 10 8 5 8 7 4 5 4
10 10 11 8 10 10 11 13 12 12 12 12 12 12 11 8 9 7 5 6 6 5
10 10 10 9 10 10 13 13 11 11 11 11 10 11 10 9 8 7 6 7 6 6
9 9 9 10 10 14 10 13 13 13 12 11 11 11 9 7 7 7 6 6 6 5
10 9 9 9 8 11 12 12 12 12 9 9 10 10 10 9 7 6 6 5 5 5
10 10 10 10 9 10 10 9 10 11 11 10 11 10 9 9 8 8 8 7 7 6
10 10 10 10 10 11 11 9 12 10 10 10 10 9 9 8 7 7 6 7 6 7
11 10 9 9 9 9 9 8 9 6 5 5 6 11 11 10 5 6 5 4 5 6
11 11 10 9 9 9 8 7 7 6 5 4 7 11 11 11 8 5 3 4 3 3
10 10 10 10 9 8 6 7 6 6 4 4 5 11 12 9 7 5 5 4 3 2
9 10 10 10 10 8 7 6 5 6 5 4 2 9 9 7 5 3 2 2 2 2
9 9 10 10 9 9 7 7 5 6 5 8 3 9 8 7 3 3 2 4 5 5
9 8 9 9 9 9 7 7 6 6 5 5 6 5 7 6 3 2 2 2 2 3
Wind_Direction
121 126 130 139 116 106 112 98 94 99 98 97 103 102 94 91 96 97 88 80 74 78
120 124 137 116 109 105 107 113 112 106 103 105 105 103 102 100 92 88 84 81 67 70
117 118 111 116 115 124 117 111 109 112 112 109 105 104 101 92 99 99 90 90 93 88
119 117 117 122 118 116 117 120 121 117 117 114 114 114 110 104 104 100 96 89 85 78
112 114 119 121 122 130 128 129 127 124 118 113 108 106 105 105 102 98 92 90 87 83
108 110 111 115 119 114 121 119 121 121 116 113 109 107 106 108 107 104 100 97 97 96
120 121 122 118 111 104 107 119 117 115 112 111 108 105 111 111 112 107 95 85 86 84
125 115 113 114 116 117 110 105 114 113 111 115 116 123 123 121 119 117 114 106 105 84
129 127 120 119 121 121 118 105 101 101 105 108 115 132 130 117 93 93 102 117 112 116
136 133 132 128 121 119 120 119 112 113 112 122 138 147 143 139 132 132 131 133 137 136
138 138 139 138 135 128 122 121 125 122 124 111 153 156 154 144 136 145 154 147 155 169
147 145 146 147 144 138 135 132 130 133 131 127 49 150 147 147 147 141 147 159 220 240
146 148 147 146 143 148 144 145 140 138 134 153 127 166 169 167 185 158 208 214 223 235
147 147 147 143 151 151 149 141 136 140 138 127 155 181 188 196 198 234 220 234 251 244